Cloud_Cover
96 99 39 100 100 100 100 100 100 100 100 60 77 11 29 5 0 0 0 0 0 0 0 0 0 4 5 6 28 3 0 1 14 99 29 82 75 98 42 100 100 100 100 100 100
100 100 100 100 100 100 100 100 100 100 83 5 5 5 5 2 4 0 0 0 0 0 3 3 7 5 5 5 44 4 1 2 95 46 88 100 91 100 45 89 95 100 100 100 100
86 100 100 100 100 100 100 100 100 100 80 5 5 5 5 0 0 0 0 0 0 0 5 5 5 5 5 3 0 0 2 45 41 67 100 99 100 98 98 100 100 100 100 100 100
42 100 100 100 100 100 100 100 99 17 5 5 5 5 1 0 0 0 0 0 0 0 0 5 2 0 0 1 0 0 42 4 5 100 100 37 89 100 83 100 100 100 100 100 100
28 62 20 100 100 100 100 60 5 5 5 5 5 3 0 0 0 0 0 0 0 0 0 0 0 0 0 0 0 2 1 34 39 57 100 100 100 100 100 100 100 100 100 100 100
8 13 5 20 83 60 91 5 42 12 5 5 47 11 5 0 0 0 0 0 0 2 1 0 0 0 0 0 0 67 98 12 5 57 100 100 90 94 100 96 93 100 100 100 100
62 5 5 5 5 5 6 5 5 5 5 5 5 2 0 0 0 0 0 1 0 0 0 0 0 0 0 0 10 97 80 11 5 6 98 100 98 100 41 62 100 88 98 100 100
97 46 5 5 48 5 5 5 5 6 46 5 1 0 0 0 0 0 0 5 0 0 2 0 0 0 1 0 42 100 51 95 91 22 10 83 100 100 99 100 100 41 84 82 98
32 68 24 18 6 5 5 5 5 5 5 3 0 0 0 0 6 4 0 1 0 0 0 0 0 0 3 5 70 11 81 74 54 63 94 53 96 98 100 100 100 76 89 60 50
87 76 13 5 2 5 5 7 6 69 100 4 2 0 0 10 75 47 5 5 5 4 5 5 2 5 12 79 2 1 5 5 5 33 25 26 78 80 100 99 89 62 52 100 100
100 94 5 0 4 5 35 83 5 5 64 6 2 0 0 40 6 10 5 11 5 5 5 50 100 70 88 4 15 85 9 5 42 36 55 86 25 88 58 80 100 23 29 100 100
100 100 100 100 47 45 30 33 98 100 100 100 16 0 5 36 59 75 7 6 5 5 5 5 56 95 4 15 26 74 82 63 8 17 77 85 100 100 100 100 94 75 96 79 95
15 22 59 100 86 23 16 5 3 5 57 66 23 0 26 84 24 35 63 5 5 5 0 0 11 0 5 18 5 8 78 100 91 98 100 97 100 100 100 99 97 90 60 57 54
5 52 5 5 19 7 7 5 4 21 26 10 4 0 28 45 56 19 5 5 5 5 2 1 4 51 70 94 100 94 34 87 94 100 49 15 99 35 53 94 62 73 34 10 10
6 5 5 33 79 5 6 38 100 5 28 2 0 4 5 9 61 7 5 5 5 5 5 5 27 76 30 31 100 33 13 67 59 70 22 33 86 82 75 100 87 30 59 2 5
0 5 64 66 9 48 20 100 40 67 4 5 5 5 5 3 5 5 5 1 2 5 42 46 44 50 70 100 100 100 100 42 54 35 0 1 13 34 39 66 29 75 52 29 13
33 72 75 58 93 100 85 100 94 4 2 3 5 5 4 4 5 18 30 5 0 0 3 5 5 5 5 6 71 63 31 8 5 5 2 0 2 5 8 65 78 37 5 5 5
70 100 23 74 100 49 74 7 0 0 0 0 0 0 5 6 92 100 54 7 5 20 2 5 12 17 5 5 4 0 2 1 4 29 11 4 41 14 15 46 5 5 5 2 5
100 85 7 70 5 5 5 5 3 1 0 0 4 3 7 4 18 29 4 3 29 99 43 30 10 9 15 95 100 100 86 4 4 0 2 15 82 92 95 34 5 5 4 2 5
100 72 27 5 5 5 0 13 90 5 5 2 5 0 5 0 0 0 0 1 0 4 6 2 2 5 3 13 94 99 9 2 0 0 18 44 14 72 79 24 5 5 5 5 5
79 10 99 13 14 47 56 7 5 5 5 3 0 0 0 5 8 34 5 11 3 4 5 8 28 14 3 0 2 1 0 0 0 0 5 63 82 28 3 5 5 5 5 11 9
100 100 99 28 5 2 5 5 11 37 5 3 0 0 0 0 0 0 7 14 20 6 5 6 4 1 0 4 5 5 0 0 3 5 5 1 5 0 5 5 5 2 5 8 14
100 56 5 5 41 42 52 5 7 5 2 0 0 0 0 0 4 4 5 3 1 1 0 0 0 0 4 16 16 4 3 0 5 0 0 2 1 5 5 3 4 5 7 50 79
95 72 79 96 81 77 62 22 4 0 0 0 0 4 5 5 3 5 32 14 4 0 4 0 0 0 0 0 0 5 1 5 1 0 0 1 4 5 5 5 5 15 74 100 100
92 100 100 100 100 61 6 5 0 0 1 4 0 5 4 3 3 10 1 0 3 5 4 0 2 5 25 48 16 73 1 2 5 5 5 5 5 5 5 5 54 78 100 93 100
100 98 12 5 8 37 100 90 0 4 4 3 0 0 0 0 0 0 0 0 0 0 0 0 33 100 100 84 23 72 5 54 100 13 5 5 5 5 6 92 54 84 33 76 100
98 88 4 4 6 100 43 4 5 5 2 0 0 0 0 0 0 0 0 0 0 0 0 4 20 65 100 89 88 83 71 5 6 5 5 75 7 5 12 5 42 5 39 100 80